STARLINK-38050

Last updated on Sun Aug 09 2026 00:02:04 GMT+0000 (Coordinated Universal Time)

1 69981U 26159G 26220.49923261 .00128480 00000+0 84750-3 0 9993 2 69981 97.2831 60.4349 0002314 92.9940 267.1590 15.75239012 5699
UTC large
Height (km)
Speed (km/s)
/
Latitude / Longitude
Inclination (degrees)
Orbital Period (minutes)
Azimuth
Elevation
Range (km)
Doppler Factor

Next 0 passes for location: London (51.5072 / 0.1276)

No passes found over London.
STARLINK-38050